SKN6004 SABE-SACO

Flight info

Callsign SKN6004
Flight time 1h 47m
Altitude 38000
Route ATOVO4B ATOVO UW5 ASISA ASISA1Q
Aircraft A20N/M-SDE2E3FGHIRWXY/LB1

Departure

Time 2026-05-03 21:52
Airport Aeroparque Jorge Newbery (SABE)

Arrival

Time 2026-05-03 23:39
Airport Ingeniero Aeronáutico Ambrosio L.V. Taravella International Airport (SACO)
Time Latitude Longitude Altitude Speed Heading
2026-05-03 20:28 -34.55697 -58.41444 28 ft 0 kts 15°
2026-05-03 21:20 -34.55704 -58.41447 28 ft 2 kts 15°
2026-05-03 21:20 -34.55719 -58.41452 28 ft 2 kts 16°
2026-05-03 21:20 -34.55728 -58.41455 28 ft 1 kts 16°
2026-05-03 21:21 -34.55742 -58.41455 28 ft 2 kts 328°
2026-05-03 21:21 -34.55748 -58.41448 28 ft 1 kts 304°
2026-05-03 21:21 -34.55752 -58.41441 28 ft 0 kts 303°
2026-05-03 21:25 -34.55751 -58.41441 28 ft 0 kts 303°
2026-05-03 21:25 -34.55736 -58.41473 28 ft 7 kts 294°
2026-05-03 21:25 -34.55736 -58.41542 28 ft 10 kts 250°
2026-05-03 21:25 -34.55798 -58.41579 28 ft 11 kts 149°
2026-05-03 21:26 -34.55838 -58.41497 28 ft 11 kts 117°
2026-05-03 21:26 -34.55878 -58.41406 29 ft 12 kts 115°
2026-05-03 21:26 -34.55916 -58.41312 30 ft 12 kts 114°
2026-05-03 21:26 -34.55965 -58.41224 31 ft 12 kts 128°
2026-05-03 21:27 -34.56022 -58.41128 31 ft 14 kts 123°
2026-05-03 21:27 -34.56082 -58.41018 30 ft 16 kts 128°
2026-05-03 21:27 -34.56150 -58.40905 29 ft 16 kts 120°
2026-05-03 21:27 -34.56180 -58.40811 28 ft 3 kts 120°
2026-05-03 21:28 -34.56180 -58.40810 28 ft 0 kts 120°
2026-05-03 21:28 -34.56182 -58.40807 28 ft 1 kts 120°
2026-05-03 21:28 -34.56192 -58.40786 28 ft 4 kts 123°
2026-05-03 21:29 -34.56212 -58.40750 28 ft 6 kts 123°
2026-05-03 21:29 -34.56225 -58.40727 27 ft 0 kts 123°
2026-05-03 21:30 -34.56225 -58.40726 27 ft 0 kts 123°
2026-05-03 21:30 -34.56230 -58.40718 27 ft 0 kts 123°
2026-05-03 21:31 -34.56235 -58.40708 27 ft 2 kts 124°
2026-05-03 21:31 -34.56250 -58.40681 27 ft 4 kts 124°
2026-05-03 21:32 -34.56274 -58.40639 27 ft 6 kts 124°
2026-05-03 21:32 -34.56276 -58.40636 27 ft 0 kts 124°
2026-05-03 21:33 -34.56282 -58.40624 27 ft 2 kts 124°
2026-05-03 21:33 -34.56283 -58.40623 27 ft 0 kts 124°
2026-05-03 21:34 -34.56285 -58.40620 26 ft 1 kts 123°
2026-05-03 21:34 -34.56290 -58.40610 26 ft 0 kts 124°
2026-05-03 21:34 -34.56292 -58.40607 26 ft 1 kts 124°
2026-05-03 21:35 -34.56302 -58.40589 26 ft 3 kts 128°
2026-05-03 21:35 -34.56309 -58.40579 26 ft 0 kts 130°
2026-05-03 21:40 -34.56316 -58.40570 26 ft 2 kts 134°
2026-05-03 21:40 -34.56333 -58.40550 26 ft 4 kts 136°
2026-05-03 21:40 -34.56339 -58.40543 26 ft 1 kts 138°
2026-05-03 21:40 -34.56349 -58.40532 26 ft 0 kts 137°
2026-05-03 21:43 -34.56356 -58.40524 26 ft 2 kts 137°
2026-05-03 21:43 -34.56374 -58.40505 26 ft 4 kts 138°
2026-05-03 21:43 -34.56391 -58.40487 26 ft 0 kts 137°
2026-05-03 21:44 -34.56391 -58.40486 26 ft 0 kts 137°
2026-05-03 21:45 -34.56397 -58.40479 26 ft 1 kts 137°
2026-05-03 21:45 -34.56410 -58.40465 26 ft 0 kts 137°
2026-05-03 21:47 -34.56421 -58.40453 26 ft 5 kts 138°
2026-05-03 21:47 -34.56460 -58.40412 26 ft 8 kts 139°
2026-05-03 21:48 -34.56469 -58.40402 26 ft 0 kts 140°
2026-05-03 21:49 -34.56473 -58.40398 26 ft 3 kts 139°
2026-05-03 21:50 -34.56515 -58.40379 26 ft 8 kts 187°
2026-05-03 21:50 -34.56558 -58.40414 28 ft 6 kts 251°
2026-05-03 21:50 -34.56541 -58.40465 28 ft 2 kts 302°
2026-05-03 21:50 -34.56541 -58.40466 28 ft 0 kts 302°
2026-05-03 21:51 -34.56539 -58.40469 28 ft 2 kts 301°
2026-05-03 21:51 -34.56428 -58.40667 30 ft 67 kts 304°
2026-05-03 21:51 -34.56026 -58.41393 33 ft 137 kts 303°
2026-05-03 21:51 -34.55422 -58.42452 415 ft 157 kts 306°
2026-05-03 21:52 -34.54806 -58.43488 1204 ft 152 kts 317°
2026-05-03 21:52 -34.53896 -58.43870 1952 ft 146 kts 10°
2026-05-03 21:52 -34.53003 -58.43182 2467 ft 163 kts 36°
2026-05-03 21:52 -34.52100 -58.42279 2936 ft 178 kts 33°
2026-05-03 21:53 -34.51060 -58.41300 3382 ft 199 kts 33°
2026-05-03 21:53 -34.49898 -58.40226 3809 ft 223 kts 33°
2026-05-03 21:53 -34.48615 -58.39057 4397 ft 242 kts 33°
2026-05-03 21:53 -34.47208 -58.37787 5010 ft 260 kts 33°
2026-05-03 21:54 -34.45759 -58.36477 5883 ft 267 kts 33°
2026-05-03 21:54 -34.44265 -58.35128 6804 ft 272 kts 32°
2026-05-03 21:54 -34.42592 -58.34095 7666 ft 272 kts
2026-05-03 21:54 -34.40756 -58.34063 8549 ft 269 kts 343°
2026-05-03 21:55 -34.39061 -58.34959 9414 ft 270 kts 326°
2026-05-03 21:55 -34.37461 -58.36205 10262 ft 276 kts 323°
2026-05-03 21:55 -34.35857 -58.37529 10907 ft 289 kts 322°
2026-05-03 21:55 -34.34136 -58.38953 11397 ft 308 kts 322°
2026-05-03 21:56 -34.32593 -58.40757 11796 ft 322 kts 300°
2026-05-03 21:56 -34.31628 -58.43223 12482 ft 328 kts 289°
2026-05-03 21:56 -34.30808 -58.45814 13293 ft 333 kts 288°
2026-05-03 21:56 -34.29971 -58.48430 14087 ft 338 kts 288°
2026-05-03 21:57 -34.29097 -58.51067 14896 ft 341 kts 289°
2026-05-03 21:57 -34.28196 -58.53700 15709 ft 344 kts 289°
2026-05-03 21:57 -34.27264 -58.56373 16471 ft 348 kts 290°
2026-05-03 21:57 -34.26313 -58.59064 17234 ft 351 kts 290°
2026-05-03 21:58 -34.25359 -58.61743 17978 ft 353 kts 289°
2026-05-03 21:58 -34.24387 -58.64458 18722 ft 355 kts 290°
2026-05-03 21:58 -34.23409 -58.67189 19418 ft 358 kts 290°
2026-05-03 21:58 -34.22412 -58.69976 20130 ft 362 kts 290°
2026-05-03 21:59 -34.21413 -58.72757 20772 ft 366 kts 290°
2026-05-03 21:59 -34.20406 -58.75549 21419 ft 368 kts 290°
2026-05-03 21:59 -34.19384 -58.78386 22061 ft 371 kts 290°
2026-05-03 21:59 -34.18354 -58.81236 22673 ft 374 kts 290°
2026-05-03 22:00 -34.17305 -58.84135 23262 ft 377 kts 290°
2026-05-03 22:00 -34.16259 -58.87020 23764 ft 380 kts 290°
2026-05-03 22:00 -34.15198 -58.89949 24011 ft 381 kts 290°
2026-05-03 22:00 -34.14139 -58.92869 24025 ft 380 kts 290°
2026-05-03 22:01 -34.13080 -58.95786 24033 ft 379 kts 290°
2026-05-03 22:01 -34.12020 -58.98706 24034 ft 379 kts 290°
2026-05-03 22:01 -34.10972 -59.01596 24035 ft 380 kts 290°
2026-05-03 22:01 -34.09910 -59.04514 24037 ft 379 kts 290°
2026-05-03 22:02 -34.08853 -59.07417 24038 ft 379 kts 290°
2026-05-03 22:02 -34.07787 -59.10340 24037 ft 380 kts 290°
2026-05-03 22:02 -34.06612 -59.13205 24038 ft 382 kts 295°
2026-05-03 22:02 -34.05248 -59.15925 24040 ft 385 kts 299°
2026-05-03 22:03 -34.03639 -59.18564 24246 ft 394 kts 304°
2026-05-03 22:03 -34.01907 -59.21096 24852 ft 396 kts 304°
2026-05-03 22:03 -34.00141 -59.23642 25462 ft 397 kts 304°
2026-05-03 22:03 -33.98356 -59.26212 26001 ft 400 kts 304°
2026-05-03 22:04 -33.96571 -59.28780 26486 ft 403 kts 304°
2026-05-03 22:04 -33.94781 -59.31356 26963 ft 406 kts 304°
2026-05-03 22:04 -33.92957 -59.33978 27425 ft 409 kts 304°
2026-05-03 22:04 -33.91139 -59.36591 27867 ft 412 kts 304°
2026-05-03 22:05 -33.89266 -59.39278 28310 ft 415 kts 304°
2026-05-03 22:05 -33.87419 -59.41908 28735 ft 418 kts 304°
2026-05-03 22:05 -33.85535 -59.44589 29121 ft 421 kts 304°
2026-05-03 22:05 -33.83640 -59.47296 29493 ft 424 kts 304°
2026-05-03 22:06 -33.81749 -59.50000 29872 ft 427 kts 304°
2026-05-03 22:06 -33.79826 -59.52748 30260 ft 429 kts 303°
2026-05-03 22:06 -33.77931 -59.55460 30740 ft 428 kts 303°
2026-05-03 22:06 -33.76026 -59.58184 31288 ft 426 kts 303°
2026-05-03 22:07 -33.74124 -59.60903 31893 ft 422 kts 303°
2026-05-03 22:07 -33.72269 -59.63553 32468 ft 418 kts 303°
2026-05-03 22:07 -33.70383 -59.66247 32954 ft 417 kts 303°
2026-05-03 22:07 -33.68543 -59.68871 33385 ft 416 kts 303°
2026-05-03 22:08 -33.66672 -59.71524 33851 ft 415 kts 303°
2026-05-03 22:08 -33.64805 -59.74167 34321 ft 413 kts 303°
2026-05-03 22:08 -33.62973 -59.76762 34753 ft 413 kts 303°
2026-05-03 22:08 -33.61115 -59.79395 35203 ft 411 kts 303°
2026-05-03 22:09 -33.59281 -59.81989 35685 ft 409 kts 302°
2026-05-03 22:09 -33.57447 -59.84585 36094 ft 408 kts 302°
2026-05-03 22:09 -33.55612 -59.87181 36455 ft 407 kts 302°
2026-05-03 22:10 -33.51982 -59.92310 37250 ft 404 kts 302°
2026-05-03 22:10 -33.50160 -59.94886 37585 ft 403 kts 302°
2026-05-03 22:10 -33.48363 -59.97423 37889 ft 402 kts 302°
2026-05-03 22:10 -33.46552 -59.99979 38015 ft 403 kts 302°
2026-05-03 22:11 -33.44738 -60.02535 38029 ft 402 kts 301°
2026-05-03 22:11 -33.41127 -60.07619 38026 ft 402 kts 302°
2026-05-03 22:12 -33.37525 -60.12679 38027 ft 402 kts 302°
2026-05-03 22:12 -33.33907 -60.17760 38027 ft 402 kts 302°
2026-05-03 22:13 -33.30288 -60.22831 38027 ft 402 kts 302°
2026-05-03 22:13 -33.26659 -60.27907 38025 ft 400 kts 302°
2026-05-03 22:14 -33.23053 -60.32952 38019 ft 401 kts 302°
2026-05-03 22:14 -33.19421 -60.38020 38024 ft 403 kts 302°
2026-05-03 22:15 -33.15788 -60.43084 38020 ft 402 kts 302°
2026-05-03 22:15 -33.12156 -60.48141 38023 ft 402 kts 302°
2026-05-03 22:16 -33.08519 -60.53196 38023 ft 403 kts 302°
2026-05-03 22:16 -33.04888 -60.58234 38021 ft 402 kts 302°
2026-05-03 22:17 -33.01251 -60.63277 38014 ft 402 kts 302°
2026-05-03 22:17 -32.97617 -60.68324 38022 ft 401 kts 302°
2026-05-03 22:18 -32.93970 -60.73376 38023 ft 401 kts 303°
2026-05-03 22:18 -32.90538 -60.78539 38021 ft 396 kts 297°
2026-05-03 22:19 -32.87595 -60.84008 38023 ft 392 kts 293°
2026-05-03 22:19 -32.84826 -60.89575 38014 ft 392 kts 293°
2026-05-03 22:20 -32.82070 -60.95124 38013 ft 392 kts 293°
2026-05-03 22:20 -32.79314 -61.00686 38015 ft 392 kts 293°
2026-05-03 22:21 -32.76542 -61.06274 37993 ft 389 kts 293°
2026-05-03 22:21 -32.73848 -61.11678 37998 ft 380 kts 292°
2026-05-03 22:22 -32.71178 -61.17050 38005 ft 379 kts 292°
2026-05-03 22:22 -32.68494 -61.22447 37993 ft 378 kts 292°
2026-05-03 22:23 -32.65839 -61.27776 38003 ft 378 kts 292°
2026-05-03 22:23 -32.63163 -61.33137 38005 ft 377 kts 292°
2026-05-03 22:24 -32.60502 -61.38458 37999 ft 376 kts 292°
2026-05-03 22:24 -32.57841 -61.43773 38007 ft 377 kts 293°
2026-05-03 22:25 -32.55166 -61.49107 38008 ft 376 kts 293°
2026-05-03 22:25 -32.52496 -61.54425 38004 ft 375 kts 292°
2026-05-03 22:26 -32.49826 -61.59735 38005 ft 375 kts 292°
2026-05-03 22:26 -32.47170 -61.65009 37998 ft 374 kts 293°
2026-05-03 22:27 -32.44503 -61.70315 38004 ft 375 kts 293°
2026-05-03 22:27 -32.41849 -61.75586 38003 ft 375 kts 293°
2026-05-03 22:28 -32.39175 -61.80885 38006 ft 375 kts 293°
2026-05-03 22:28 -32.36496 -61.86177 38001 ft 375 kts 293°
2026-05-03 22:29 -32.33817 -61.91457 38004 ft 375 kts 293°
2026-05-03 22:29 -32.31141 -61.96709 38002 ft 374 kts 293°
2026-05-03 22:30 -32.28457 -62.01982 38005 ft 374 kts 293°
2026-05-03 22:30 -32.25796 -62.07202 37998 ft 374 kts 293°
2026-05-03 22:31 -32.23111 -62.12472 38000 ft 373 kts 293°
2026-05-03 22:31 -32.20446 -62.17695 37997 ft 373 kts 293°
2026-05-03 22:31 -32.19120 -62.20293 37794 ft 374 kts 293°
2026-05-03 22:32 -32.17773 -62.22931 37560 ft 373 kts 293°
2026-05-03 22:32 -32.16431 -62.25555 37364 ft 374 kts 293°
2026-05-03 22:32 -32.15087 -62.28177 37186 ft 374 kts 293°
2026-05-03 22:32 -32.13743 -62.30801 37027 ft 375 kts 293°
2026-05-03 22:33 -32.12411 -62.33397 36757 ft 372 kts 293°
2026-05-03 22:33 -32.11084 -62.35983 36122 ft 372 kts 293°
2026-05-03 22:33 -32.09741 -62.38604 35244 ft 376 kts 293°
2026-05-03 22:33 -32.08394 -62.41235 34322 ft 382 kts 294°
2026-05-03 22:34 -32.07013 -62.43924 33236 ft 386 kts 294°
2026-05-03 22:34 -32.05624 -62.46625 32257 ft 392 kts 294°
2026-05-03 22:34 -32.04208 -62.49372 31455 ft 395 kts 295°
2026-05-03 22:34 -32.02780 -62.52137 30680 ft 398 kts 295°
2026-05-03 22:35 -32.01355 -62.54894 30068 ft 401 kts 295°
2026-05-03 22:35 -31.99894 -62.57722 29566 ft 403 kts 295°
2026-05-03 22:35 -31.98437 -62.60538 29107 ft 405 kts 295°
2026-05-03 22:35 -31.96971 -62.63371 28691 ft 407 kts 295°
2026-05-03 22:36 -31.95513 -62.66188 28332 ft 408 kts 296°
2026-05-03 22:36 -31.94039 -62.69041 27908 ft 405 kts 295°
2026-05-03 22:36 -31.92583 -62.71857 27144 ft 405 kts 295°
2026-05-03 22:36 -31.91116 -62.74695 26527 ft 406 kts 296°
2026-05-03 22:37 -31.89658 -62.77506 25969 ft 402 kts 296°
2026-05-03 22:37 -31.88215 -62.80263 25442 ft 398 kts 296°
2026-05-03 22:37 -31.86770 -62.83016 24916 ft 394 kts 296°
2026-05-03 22:37 -31.85349 -62.85727 24407 ft 390 kts 296°
2026-05-03 22:38 -31.83935 -62.88438 23916 ft 386 kts 296°
2026-05-03 22:38 -31.82532 -62.91128 23418 ft 383 kts 296°
2026-05-03 22:38 -31.81155 -62.93772 22926 ft 379 kts 296°
2026-05-03 22:38 -31.79797 -62.96378 22441 ft 376 kts 296°
2026-05-03 22:39 -31.78437 -62.98992 21942 ft 372 kts 296°
2026-05-03 22:39 -31.77106 -63.01546 21448 ft 370 kts 296°
2026-05-03 22:39 -31.75773 -63.04103 20945 ft 367 kts 296°
2026-05-03 22:39 -31.74444 -63.06654 20447 ft 364 kts 297°
2026-05-03 22:40 -31.73130 -63.09171 19960 ft 362 kts 297°
2026-05-03 22:40 -31.71674 -63.11605 19453 ft 367 kts 309°
2026-05-03 22:40 -31.69654 -63.13417 18960 ft 377 kts 327°
2026-05-03 22:40 -31.67149 -63.14393 18473 ft 385 kts 346°
2026-05-03 22:41 -31.64453 -63.14443 18006 ft 389 kts 360°
2026-05-03 22:41 -31.61771 -63.14134 17514 ft 386 kts
2026-05-03 22:41 -31.59122 -63.13773 16993 ft 383 kts
2026-05-03 22:41 -31.56462 -63.13408 16478 ft 380 kts
2026-05-03 22:42 -31.53856 -63.13060 15973 ft 376 kts
2026-05-03 22:42 -31.51273 -63.12728 15470 ft 373 kts
2026-05-03 22:42 -31.48717 -63.12405 14959 ft 369 kts
2026-05-03 22:42 -31.46150 -63.12089 14439 ft 366 kts
2026-05-03 22:43 -31.43645 -63.11785 13944 ft 363 kts
2026-05-03 22:43 -31.41126 -63.11493 13443 ft 359 kts
2026-05-03 22:43 -31.38663 -63.11217 12945 ft 356 kts
2026-05-03 22:43 -31.36204 -63.10944 12464 ft 352 kts
2026-05-03 22:44 -31.33802 -63.10691 12096 ft 347 kts
2026-05-03 22:44 -31.31385 -63.10686 12001 ft 345 kts 354°
2026-05-03 22:44 -31.28975 -63.10896 11986 ft 346 kts 352°
2026-05-03 22:44 -31.26582 -63.11141 11984 ft 345 kts 352°
2026-05-03 22:45 -31.24172 -63.11397 11972 ft 345 kts 352°
2026-05-03 22:45 -31.21786 -63.11651 11974 ft 346 kts 352°
2026-05-03 22:45 -31.19372 -63.11904 11973 ft 346 kts 352°
2026-05-03 22:45 -31.16991 -63.12154 11983 ft 347 kts 352°
2026-05-03 22:46 -31.14571 -63.12408 11982 ft 347 kts 352°
2026-05-03 22:46 -31.12161 -63.12663 11974 ft 347 kts 351°
2026-05-03 22:46 -31.09806 -63.13147 11980 ft 345 kts 344°
2026-05-03 22:46 -31.07479 -63.13841 11978 ft 345 kts 342°
2026-05-03 22:47 -31.05154 -63.14576 11982 ft 345 kts 342°
2026-05-03 22:47 -31.02829 -63.15319 11982 ft 345 kts 342°
2026-05-03 22:47 -31.00507 -63.16065 11988 ft 345 kts 342°
2026-05-03 22:47 -30.98190 -63.16814 11976 ft 345 kts 342°
2026-05-03 22:48 -30.95859 -63.17566 11981 ft 345 kts 342°
2026-05-03 22:48 -30.93564 -63.18304 11977 ft 345 kts 342°
2026-05-03 22:48 -30.91238 -63.19049 11978 ft 345 kts 342°
2026-05-03 22:48 -30.88936 -63.19784 11984 ft 345 kts 342°
2026-05-03 22:49 -30.86609 -63.20524 11979 ft 345 kts 342°
2026-05-03 22:49 -30.84290 -63.21261 11980 ft 345 kts 342°
2026-05-03 22:49 -30.81956 -63.22028 11979 ft 344 kts 338°
2026-05-03 22:49 -30.79850 -63.23289 11983 ft 341 kts 324°
2026-05-03 22:50 -30.77899 -63.24820 11994 ft 340 kts 322°
2026-05-03 22:50 -30.75955 -63.26410 11994 ft 341 kts 322°
2026-05-03 22:50 -30.74021 -63.28001 11994 ft 341 kts 322°
2026-05-03 22:50 -30.72082 -63.29594 11991 ft 341 kts 322°
2026-05-03 22:51 -30.70150 -63.31186 11996 ft 341 kts 322°
2026-05-03 22:51 -30.68225 -63.32772 11994 ft 341 kts 322°
2026-05-03 22:51 -30.66278 -63.34374 11992 ft 341 kts 322°
2026-05-03 22:51 -30.64334 -63.35974 11993 ft 342 kts 322°
2026-05-03 22:52 -30.62415 -63.37588 11991 ft 340 kts 318°
2026-05-03 22:52 -30.60852 -63.39579 11988 ft 337 kts 304°
2026-05-03 22:52 -30.59480 -63.41813 11991 ft 337 kts 302°
2026-05-03 22:52 -30.58171 -63.44033 11990 ft 337 kts 302°
2026-05-03 22:53 -30.56850 -63.46291 11997 ft 337 kts 302°
2026-05-03 22:53 -30.55537 -63.48532 11993 ft 337 kts 302°
2026-05-03 22:53 -30.54215 -63.50778 11992 ft 337 kts 302°
2026-05-03 22:53 -30.52957 -63.53079 11980 ft 335 kts 293°
2026-05-03 22:54 -30.52377 -63.55643 11983 ft 332 kts 272°
2026-05-03 22:54 -30.52486 -63.58317 11991 ft 333 kts 263°
2026-05-03 22:54 -30.52763 -63.60974 11996 ft 333 kts 262°
2026-05-03 22:54 -30.53071 -63.63635 11988 ft 333 kts 262°
2026-05-03 22:55 -30.53380 -63.66282 11988 ft 333 kts 262°
2026-05-03 22:55 -30.53688 -63.68953 11989 ft 333 kts 262°
2026-05-03 22:55 -30.53994 -63.71612 11993 ft 333 kts 262°
2026-05-03 22:55 -30.54298 -63.74288 11992 ft 333 kts 262°
2026-05-03 22:56 -30.54595 -63.76918 11991 ft 333 kts 262°
2026-05-03 22:56 -30.54894 -63.79598 11992 ft 333 kts 262°
2026-05-03 22:56 -30.55184 -63.82227 11992 ft 332 kts 262°
2026-05-03 22:56 -30.55477 -63.84897 11993 ft 332 kts 262°
2026-05-03 22:57 -30.55767 -63.87561 11993 ft 332 kts 262°
2026-05-03 22:57 -30.56052 -63.90195 11993 ft 332 kts 263°
2026-05-03 22:57 -30.56339 -63.92856 11992 ft 332 kts 262°
2026-05-03 22:57 -30.56621 -63.95515 11993 ft 331 kts 262°
2026-05-03 22:58 -30.56898 -63.98149 11993 ft 331 kts 263°
2026-05-03 22:58 -30.57177 -64.00808 11992 ft 331 kts 263°
2026-05-03 22:58 -30.57453 -64.03439 11993 ft 331 kts 262°
2026-05-03 22:58 -30.57731 -64.06094 11993 ft 332 kts 263°
2026-05-03 22:59 -30.58013 -64.08757 11988 ft 332 kts 263°
2026-05-03 22:59 -30.58294 -64.11417 11985 ft 332 kts 263°
2026-05-03 22:59 -30.58571 -64.14080 11986 ft 331 kts 263°
2026-05-03 22:59 -30.58843 -64.16715 11990 ft 332 kts 263°
2026-05-03 23:00 -30.59114 -64.19383 11990 ft 333 kts 263°
2026-05-03 23:00 -30.59381 -64.22034 11992 ft 332 kts 263°
2026-05-03 23:00 -30.59648 -64.24689 11996 ft 331 kts 263°
2026-05-03 23:00 -30.59914 -64.27359 11989 ft 331 kts 263°
2026-05-03 23:01 -30.60177 -64.29984 11989 ft 331 kts 263°
2026-05-03 23:01 -30.60442 -64.32648 11991 ft 331 kts 263°
2026-05-03 23:01 -30.60702 -64.35291 11993 ft 330 kts 263°
2026-05-03 23:01 -30.60959 -64.37915 11997 ft 331 kts 263°
2026-05-03 23:02 -30.61218 -64.40567 11995 ft 331 kts 263°
2026-05-03 23:02 -30.61477 -64.43220 11995 ft 330 kts 263°
2026-05-03 23:02 -30.61735 -64.45882 11996 ft 330 kts 263°
2026-05-03 23:02 -30.61988 -64.48524 12002 ft 330 kts 263°
2026-05-03 23:03 -30.62240 -64.51179 12000 ft 331 kts 263°
2026-05-03 23:03 -30.62491 -64.53804 11993 ft 331 kts 263°
2026-05-03 23:03 -30.62742 -64.56454 11991 ft 331 kts 263°
2026-05-03 23:03 -30.62993 -64.59099 11989 ft 331 kts 263°
2026-05-03 23:04 -30.63246 -64.61772 11988 ft 331 kts 263°
2026-05-03 23:04 -30.63496 -64.64429 11986 ft 331 kts 263°
2026-05-03 23:04 -30.63740 -64.67046 11984 ft 331 kts 263°
2026-05-03 23:04 -30.63985 -64.69714 11974 ft 331 kts 263°
2026-05-03 23:05 -30.64228 -64.72374 11976 ft 331 kts 263°
2026-05-03 23:05 -30.64470 -64.75027 11967 ft 331 kts 263°
2026-05-03 23:05 -30.64712 -64.77680 11975 ft 331 kts 263°
2026-05-03 23:05 -30.64953 -64.80340 11976 ft 330 kts 263°
2026-05-03 23:06 -30.65188 -64.82951 11976 ft 330 kts 263°
2026-05-03 23:06 -30.65425 -64.85621 11977 ft 330 kts 263°
2026-05-03 23:06 -30.65657 -64.88244 11970 ft 330 kts 263°
2026-05-03 23:06 -30.65893 -64.90893 11964 ft 330 kts 262°
2026-05-03 23:07 -30.66509 -64.93433 11952 ft 329 kts 243°
2026-05-03 23:07 -30.67924 -64.95518 11968 ft 331 kts 222°
2026-05-03 23:07 -30.69926 -64.96820 11967 ft 338 kts 200°
2026-05-03 23:07 -30.72296 -64.97167 11971 ft 345 kts 180°
2026-05-03 23:08 -30.74678 -64.96842 11976 ft 348 kts 174°
2026-05-03 23:08 -30.77073 -64.96381 11978 ft 349 kts 174°
2026-05-03 23:08 -30.79474 -64.95896 11985 ft 349 kts 174°
2026-05-03 23:08 -30.81886 -64.95406 11984 ft 349 kts 173°
2026-05-03 23:09 -30.84282 -64.94923 11979 ft 350 kts 174°
2026-05-03 23:09 -30.86665 -64.94441 11987 ft 350 kts 174°
2026-05-03 23:09 -30.89081 -64.93950 11995 ft 350 kts 174°
2026-05-03 23:09 -30.91468 -64.93463 11989 ft 349 kts 174°
2026-05-03 23:10 -30.93854 -64.92978 11990 ft 349 kts 174°
2026-05-03 23:10 -30.96269 -64.92488 11996 ft 349 kts 174°
2026-05-03 23:10 -30.98676 -64.91997 11986 ft 349 kts 174°
2026-05-03 23:10 -31.01050 -64.91515 11988 ft 350 kts 173°
2026-05-03 23:11 -31.03462 -64.91026 11991 ft 350 kts 174°
2026-05-03 23:11 -31.05878 -64.90536 11994 ft 350 kts 173°
2026-05-03 23:11 -31.08255 -64.90057 11993 ft 350 kts 174°
2026-05-03 23:11 -31.10683 -64.89565 11991 ft 351 kts 173°
2026-05-03 23:12 -31.13099 -64.89082 11996 ft 351 kts 174°
2026-05-03 23:12 -31.15489 -64.88604 12005 ft 350 kts 174°
2026-05-03 23:12 -31.17912 -64.88117 12010 ft 350 kts 174°
2026-05-03 23:12 -31.20313 -64.87638 12015 ft 350 kts 174°
2026-05-03 23:13 -31.22722 -64.87157 12022 ft 350 kts 174°
2026-05-03 23:13 -31.25105 -64.86674 11869 ft 344 kts 174°
2026-05-03 23:13 -31.27449 -64.86200 11362 ft 343 kts 174°
2026-05-03 23:13 -31.29773 -64.85718 10799 ft 344 kts 170°
2026-05-03 23:14 -31.31977 -64.84627 10294 ft 348 kts 148°
2026-05-03 23:14 -31.33756 -64.82760 10082 ft 338 kts 136°
2026-05-03 23:14 -31.35311 -64.80798 10064 ft 321 kts 134°
2026-05-03 23:14 -31.36773 -64.78896 10071 ft 310 kts 134°
2026-05-03 23:15 -31.38216 -64.77003 10078 ft 311 kts 134°
2026-05-03 23:15 -31.39656 -64.75115 10084 ft 311 kts 134°
2026-05-03 23:15 -31.41099 -64.73224 10087 ft 310 kts 134°
2026-05-03 23:15 -31.42531 -64.71354 10084 ft 310 kts 134°
2026-05-03 23:16 -31.43970 -64.69471 10075 ft 310 kts 134°
2026-05-03 23:16 -31.45414 -64.67578 10063 ft 310 kts 134°
2026-05-03 23:16 -31.46847 -64.65702 10053 ft 310 kts 134°
2026-05-03 23:16 -31.48296 -64.63803 10046 ft 311 kts 134°
2026-05-03 23:17 -31.49738 -64.61916 10037 ft 311 kts 134°
2026-05-03 23:17 -31.51162 -64.60048 10033 ft 310 kts 134°
2026-05-03 23:17 -31.52613 -64.58151 10027 ft 311 kts 134°
2026-05-03 23:17 -31.54040 -64.56288 9932 ft 307 kts 134°
2026-05-03 23:18 -31.55466 -64.54435 9542 ft 306 kts 134°
2026-05-03 23:18 -31.56897 -64.52595 9097 ft 307 kts 134°
2026-05-03 23:18 -31.58356 -64.50751 8695 ft 305 kts 134°
2026-05-03 23:18 -31.59790 -64.48963 8334 ft 302 kts 134°
2026-05-03 23:19 -31.61219 -64.47186 8051 ft 298 kts 130°
2026-05-03 23:19 -31.62250 -64.45099 8001 ft 297 kts 109°
2026-05-03 23:19 -31.62895 -64.42770 7996 ft 298 kts 105°
2026-05-03 23:19 -31.63450 -64.40467 7993 ft 297 kts 104°
2026-05-03 23:20 -31.64001 -64.38121 7998 ft 298 kts 104°
2026-05-03 23:20 -31.64551 -64.35765 7996 ft 298 kts 104°
2026-05-03 23:20 -31.65096 -64.33423 7994 ft 298 kts 103°
2026-05-03 23:20 -31.65635 -64.31094 7992 ft 299 kts 103°
2026-05-03 23:21 -31.66162 -64.28733 7993 ft 298 kts 99°
2026-05-03 23:21 -31.66307 -64.26339 7876 ft 291 kts 86°
2026-05-03 23:21 -31.66222 -64.23999 7470 ft 290 kts 83°
2026-05-03 23:21 -31.66099 -64.21619 7091 ft 287 kts 83°
2026-05-03 23:22 -31.65867 -64.16996 7003 ft 286 kts 83°
2026-05-03 23:22 -31.65750 -64.14681 7000 ft 286 kts 83°
2026-05-03 23:22 -31.65636 -64.12336 6995 ft 286 kts 83°
2026-05-03 23:23 -31.65524 -64.10030 6994 ft 286 kts 83°
2026-05-03 23:23 -31.65410 -64.07696 6992 ft 286 kts 83°
2026-05-03 23:23 -31.65295 -64.05371 6997 ft 287 kts 83°
2026-05-03 23:23 -31.65177 -64.03031 6986 ft 287 kts 83°
2026-05-03 23:24 -31.65062 -64.00682 6970 ft 287 kts 83°
2026-05-03 23:24 -31.64943 -63.98369 6980 ft 287 kts 83°
2026-05-03 23:24 -31.64821 -63.96014 6984 ft 287 kts 83°
2026-05-03 23:24 -31.64702 -63.93673 6981 ft 287 kts 83°
2026-05-03 23:25 -31.64587 -63.91353 6979 ft 287 kts 83°
2026-05-03 23:25 -31.64472 -63.89011 6974 ft 287 kts 83°
2026-05-03 23:25 -31.64355 -63.86684 6978 ft 287 kts 83°
2026-05-03 23:25 -31.64240 -63.84348 6976 ft 286 kts 83°
2026-05-03 23:26 -31.64123 -63.82008 6977 ft 286 kts 83°
2026-05-03 23:26 -31.64006 -63.79681 6980 ft 286 kts 83°
2026-05-03 23:26 -31.63888 -63.77358 6970 ft 284 kts 83°
2026-05-03 23:26 -31.63776 -63.75085 6707 ft 281 kts 83°
2026-05-03 23:27 -31.63675 -63.72786 6280 ft 281 kts 83°
2026-05-03 23:27 -31.63584 -63.70534 6015 ft 277 kts 83°
2026-05-03 23:27 -31.63343 -63.68295 5980 ft 272 kts 66°
2026-05-03 23:27 -31.62363 -63.66459 5983 ft 262 kts 40°
2026-05-03 23:28 -31.60993 -63.65085 5987 ft 261 kts 34°
2026-05-03 23:28 -31.59542 -63.63796 5987 ft 261 kts 33°
2026-05-03 23:28 -31.58087 -63.62534 5991 ft 259 kts 33°
2026-05-03 23:28 -31.56570 -63.61396 5976 ft 255 kts 18°
2026-05-03 23:29 -31.54843 -63.61258 5979 ft 250 kts 347°
2026-05-03 23:29 -31.53273 -63.62074 5978 ft 252 kts 325°
2026-05-03 23:29 -31.52074 -63.63611 5976 ft 258 kts 303°
2026-05-03 23:29 -31.51471 -63.65608 5989 ft 264 kts 288°
2026-05-03 23:30 -31.51063 -63.67708 5987 ft 265 kts 287°
2026-05-03 23:30 -31.50658 -63.69780 5947 ft 262 kts 287°
2026-05-03 23:30 -31.50252 -63.71845 5579 ft 261 kts 288°
2026-05-03 23:30 -31.49840 -63.73907 5149 ft 261 kts 288°
2026-05-03 23:31 -31.49424 -63.75972 4996 ft 260 kts 288°
2026-05-03 23:31 -31.49007 -63.78028 4987 ft 261 kts 288°
2026-05-03 23:31 -31.48583 -63.80108 4983 ft 262 kts 288°
2026-05-03 23:31 -31.48157 -63.82198 4981 ft 262 kts 288°
2026-05-03 23:32 -31.47734 -63.84271 4981 ft 262 kts 288°
2026-05-03 23:32 -31.47316 -63.86321 4980 ft 262 kts 288°
2026-05-03 23:32 -31.46889 -63.88405 4981 ft 263 kts 288°
2026-05-03 23:32 -31.46463 -63.90487 4982 ft 263 kts 288°
2026-05-03 23:33 -31.46035 -63.92582 4983 ft 263 kts 288°
2026-05-03 23:33 -31.45613 -63.94634 4980 ft 263 kts 288°
2026-05-03 23:33 -31.45186 -63.96713 4884 ft 263 kts 288°
2026-05-03 23:33 -31.44758 -63.98800 4732 ft 259 kts 288°
2026-05-03 23:34 -31.44346 -64.00813 4630 ft 250 kts 288°
2026-05-03 23:34 -31.43958 -64.02720 4601 ft 236 kts 288°
2026-05-03 23:34 -31.43624 -64.04583 4515 ft 231 kts 283°
2026-05-03 23:34 -31.43504 -64.06454 4382 ft 233 kts 277°
2026-05-03 23:35 -31.43494 -64.08348 4190 ft 233 kts 276°
2026-05-03 23:35 -31.43502 -64.10204 4139 ft 221 kts 276°
2026-05-03 23:35 -31.43513 -64.11953 4123 ft 208 kts 276°
2026-05-03 23:35 -31.43520 -64.13599 4086 ft 196 kts 276°
2026-05-03 23:36 -31.43521 -64.15178 3995 ft 195 kts 276°
2026-05-03 23:36 -31.43332 -64.16724 3803 ft 184 kts 307°
2026-05-03 23:36 -31.42444 -64.17639 3668 ft 171 kts 337°
2026-05-03 23:36 -31.41361 -64.18233 3388 ft 174 kts 339°
2026-05-03 23:37 -31.40267 -64.18861 3155 ft 171 kts 337°
2026-05-03 23:37 -31.39250 -64.19493 2968 ft 164 kts 335°
2026-05-03 23:37 -31.38272 -64.20130 2711 ft 157 kts 334°
2026-05-03 23:37 -31.37351 -64.20702 2488 ft 142 kts 345°
2026-05-03 23:38 -31.36425 -64.20792 2330 ft 129 kts
2026-05-03 23:38 -31.35548 -64.20789 2152 ft 125 kts
2026-05-03 23:38 -31.34681 -64.20790 2005 ft 124 kts
2026-05-03 23:38 -31.33806 -64.20801 1845 ft 124 kts 359°
2026-05-03 23:39 -31.32950 -64.20812 1672 ft 123 kts
2026-05-03 23:39 -31.32096 -64.20818 1543 ft 116 kts 358°
2026-05-03 23:39 -31.31555 -64.20824 1557 ft 36 kts 356°
2026-05-03 23:39 -31.31466 -64.20901 1561 ft 10 kts 270°
2026-05-03 23:40 -31.31466 -64.20963 1564 ft 0 kts 268°
2026-05-03 23:41 -31.31468 -64.21004 1565 ft 4 kts 268°
2026-05-03 23:42 -31.31471 -64.21042 1566 ft 4 kts 265°
2026-05-03 23:42 -31.31475 -64.21101 1567 ft 10 kts 264°
2026-05-03 23:42 -31.31482 -64.21175 1568 ft 2 kts 260°